• In Hungary
  • List of Countries
  • For 7 days
  • Water Temperature
  • Satellite Maps
  • Weather Map
  • News
  • Weather Widgets
  • user-avatar
    Login

    Hourly Weather Yakovlevo

    Today, 22 October, Monday

    Time Temperature Precipitation Wind Pressure Humidity
    00:00 +4°C° 0 mm 0 mps 755 mmHg 77%
    01:00 +3°C° 0 mm 0 mps 755 mmHg 79%
    02:00 +5°C° 0 mm 0 mps 755 mmHg 73%
    03:00 +4°C° 0 mm 0 mps 754 mmHg 74%
    04:00 +4°C° 0 mm 0 mps 754 mmHg 74%
    05:00 +5°C° 0 mm 1 mps 754 mmHg 74%
    06:00 +5°C° 0 mm 1 mps 754 mmHg 74%
    07:00 +5°C° 0 mm 1 mps 754 mmHg 73%
    08:00 +6°C° 0 mm 1 mps 754 mmHg 70%
    09:00 +5°C° 0 mm 2 mps 754 mmHg 67%
    10:00 +6°C° 0 mm 2 mps 753 mmHg 64%
    11:00 +7°C° 0 mm 3 mps 752 mmHg 61%
    12:00 +7°C° 0 mm 3 mps 752 mmHg 61%
    13:00 +7°C° 0 mm 3 mps 751 mmHg 60%
    14:00 +8°C° 0 mm 3 mps 751 mmHg 60%
    15:00 +7°C° 0 mm 3 mps 750 mmHg 65%
    16:00 +5°C° 0 mm 3 mps 749 mmHg 70%
    17:00 +4°C° 0 mm 3 mps 749 mmHg 75%
    18:00 +3°C° 0 mm 3 mps 748 mmHg 76%
    19:00 +3°C° 0 mm 3 mps 748 mmHg 78%
    20:00 +3°C° 0 mm 3 mps 748 mmHg 79%
    21:00 +2°C° 0 mm 3 mps 747 mmHg 80%
    22:00 +2°C° 0 mm 3 mps 747 mmHg 80%
    23:00 +2°C° 0 mm 3 mps 746 mmHg 81%

    Tomorrow, 23 October, Tuesday

    Time Temperature Precipitation Wind Pressure Humidity
    00:00 +2°C° 0 mm 3 mps 745 mmHg 82%
    01:00 +1°C° 0 mm 3 mps 745 mmHg 83%
    02:00 +1°C° 0 mm 3 mps 744 mmHg 84%
    03:00 0°C° 0 mm 4 mps 743 mmHg 85%
    04:00 0°C° 0 mm 4 mps 742 mmHg 86%
    05:00 0°C° 0 mm 4 mps 742 mmHg 87%
    06:00 0°C° 0 mm 4 mps 741 mmHg 86%
    07:00 +1°C° 0 mm 4 mps 741 mmHg 85%
    08:00 +1°C° 0 mm 4 mps 741 mmHg 84%
    09:00 +3°C° 0 mm 4 mps 740 mmHg 83%
    10:00 +4°C° 0 mm 4 mps 740 mmHg 82%
    11:00 +4°C° 0 mm 4 mps 739 mmHg 81%
    12:00 +4°C° 0 mm 3 mps 739 mmHg 81%
    13:00 +5°C° 0 mm 3 mps 739 mmHg 82%
    14:00 +5°C° 0 mm 3 mps 738 mmHg 82%
    15:00 +6°C° 0 mm 2 mps 738 mmHg 84%
    16:00 +5°C° 0 mm 2 mps 737 mmHg 86%
    17:00 +5°C° 0 mm 2 mps 737 mmHg 88%
    18:00 +5°C° 0 mm 2 mps 736 mmHg 88%
    19:00 +5°C° 0 mm 2 mps 736 mmHg 88%
    20:00 +5°C° 0 mm 2 mps 736 mmHg 88%
    21:00 +5°C° 0 mm 2 mps 735 mmHg 88%
    22:00 +4°C° 0 mm 2 mps 734 mmHg 87%
    23:00 +3°C° 0 mm 3 mps 733 mmHg 86%

    Day after tomorrow, 24 October, Wednesday

    Time Temperature Precipitation Wind Pressure Humidity
    00:00 +3°C° 0 mm 3 mps 733 mmHg 86%
    01:00 +3°C° 0 mm 3 mps 732 mmHg 87%
    02:00 +3°C° 0 mm 3 mps 731 mmHg 87%
    03:00 +3°C° 0 mm 3 mps 730 mmHg 87%
    04:00 +3°C° 0 mm 3 mps 730 mmHg 87%
    05:00 +3°C° 0 mm 3 mps 729 mmHg 87%
    06:00 +3°C° 0 mm 3 mps 728 mmHg 85%
    07:00 +3°C° 0 mm 4 mps 728 mmHg 82%
    08:00 +3°C° 0 mm 4 mps 728 mmHg 80%
    09:00 +3°C° 0.3 mm 5 mps 727 mmHg 79%
    10:00 +3°C° 0.3 mm 5 mps 727 mmHg 77%
    11:00 +5°C° 0.3 mm 5 mps 726 mmHg 76%
    12:00 +5°C° 0.4 mm 5 mps 726 mmHg 78%
    13:00 +5°C° 0.4 mm 5 mps 726 mmHg 80%
    14:00 +6°C° 0.4 mm 5 mps 726 mmHg 82%
    15:00 +6°C° 0.2 mm 4 mps 726 mmHg 84%
    16:00 +6°C° 0.2 mm 4 mps 725 mmHg 86%
    17:00 +7°C° 0.2 mm 3 mps 725 mmHg 88%
    18:00 +5°C° 0.6 mm 3 mps 725 mmHg 89%
    19:00 +5°C° 0.6 mm 3 mps 725 mmHg 91%
    20:00 +5°C° 0.6 mm 3 mps 725 mmHg 92%
    21:00 +5°C° 1.2 mm 3 mps 725 mmHg 93%
    22:00 +5°C° 1.2 mm 3 mps 725 mmHg 93%
    23:00 +5°C° 1.2 mm 4 mps 724 mmHg 94%

    25 October, Thursday

    Time Temperature Precipitation Wind Pressure Humidity
    00:00 +7°C° 0.7 mm 3 mps 724 mmHg 94%
    01:00 +7°C° 0.7 mm 3 mps 723 mmHg 95%
    02:00 +7°C° 0.7 mm 3 mps 723 mmHg 95%
    03:00 +7°C° 0.4 mm 3 mps 722 mmHg 95%
    04:00 +6°C° 0.4 mm 4 mps 721 mmHg 95%
    05:00 +6°C° 0.4 mm 4 mps 720 mmHg 95%
    06:00 +6°C° 1.6 mm 4 mps 720 mmHg 93%
    07:00 +6°C° 1.6 mm 5 mps 719 mmHg 91%
    08:00 +6°C° 1.6 mm 5 mps 719 mmHg 90%
    09:00 +6°C° 0.7 mm 5 mps 718 mmHg 84%
    10:00 +6°C° 0.7 mm 5 mps 718 mmHg 78%
    11:00 +6°C° 0.7 mm 5 mps 718 mmHg 73%
    12:00 +6°C° 0.1 mm 4 mps 717 mmHg 72%
    13:00 +7°C° 0.1 mm 3 mps 717 mmHg 71%
    14:00 +7°C° 0.1 mm 2 mps 717 mmHg 70%
    15:00 +6°C° 0.1 mm 2 mps 717 mmHg 75%
    16:00 +5°C° 0.1 mm 2 mps 717 mmHg 80%
    17:00 +5°C° 0.1 mm 1 mps 718 mmHg 84%
    18:00 +4°C° 0.1 mm 2 mps 718 mmHg 86%
    19:00 +3°C° 0.1 mm 3 mps 719 mmHg 87%
    20:00 +3°C° 0.1 mm 4 mps 720 mmHg 89%
    21:00 +2°C° 0.5 mm 5 mps 720 mmHg 87%
    22:00 +2°C° 0.5 mm 5 mps 721 mmHg 85%
    23:00 +2°C° 0.5 mm 6 mps 722 mmHg 83%

    26 October, Friday

    Time Temperature Precipitation Wind Pressure Humidity
    00:00 +2°C° 0.1 mm 6 mps 723 mmHg 83%
    01:00 +1°C° 0.1 mm 6 mps 723 mmHg 82%
    02:00 +1°C° 0.1 mm 6 mps 724 mmHg 82%
    03:00 +1°C° 0.1 mm 6 mps 725 mmHg 81%
    04:00 +1°C° 0.1 mm 6 mps 725 mmHg 81%
    05:00 -1°C° 0.1 mm 6 mps 726 mmHg 81%
    06:00 -1°C° 0 mm 6 mps 727 mmHg 80%
    07:00 -1°C° 0 mm 6 mps 728 mmHg 78%
    08:00 -1°C° 0 mm 6 mps 729 mmHg 77%
    09:00 -1°C° 0 mm 6 mps 730 mmHg 75%
    10:00 +1°C° 0 mm 6 mps 731 mmHg 73%
    11:00 +1°C° 0 mm 6 mps 732 mmHg 70%
    12:00 +1°C° 0 mm 6 mps 732 mmHg 70%
    13:00 +1°C° 0 mm 6 mps 733 mmHg 70%
    14:00 +1°C° 0 mm 6 mps 734 mmHg 70%
    15:00 +1°C° 0 mm 6 mps 735 mmHg 72%
    16:00 +1°C° 0 mm 5 mps 735 mmHg 74%
    17:00 +1°C° 0 mm 5 mps 736 mmHg 77%
    18:00 +1°C° 0 mm 5 mps 737 mmHg 78%
    19:00 +1°C° 0 mm 5 mps 737 mmHg 79%
    20:00 0°C° 0 mm 4 mps 738 mmHg 80%
    21:00 +1°C° 0 mm 4 mps 738 mmHg 81%
    22:00 +1°C° 0 mm 4 mps 739 mmHg 81%
    23:00 +1°C° 0 mm 4 mps 739 mmHg 81%

    27 October, Saturday

    Time Temperature Precipitation Wind Pressure Humidity
    00:00 0°C° 0 mm 4 mps 740 mmHg 83%
    01:00 0°C° 0 mm 4 mps 740 mmHg 85%
    02:00 0°C° 0 mm 4 mps 741 mmHg 86%
    03:00 -1°C° 0 mm 4 mps 741 mmHg 89%
    04:00 -1°C° 0 mm 4 mps 742 mmHg 91%
    05:00 -1°C° 0 mm 4 mps 742 mmHg 93%
    06:00 -1°C° 0 mm 4 mps 743 mmHg 91%
    07:00 -1°C° 0 mm 4 mps 743 mmHg 89%
    08:00 -1°C° 0 mm 4 mps 744 mmHg 87%
    09:00 +1°C° 0 mm 4 mps 744 mmHg 83%
    10:00 +2°C° 0 mm 5 mps 744 mmHg 78%
    11:00 +3°C° 0 mm 5 mps 744 mmHg 73%
    12:00 +3°C° 0 mm 5 mps 744 mmHg 72%
    13:00 +5°C° 0 mm 5 mps 744 mmHg 71%
    14:00 +5°C° 0 mm 5 mps 744 mmHg 70%
    15:00 +5°C° 0 mm 5 mps 743 mmHg 73%
    16:00 +3°C° 0 mm 5 mps 743 mmHg 76%
    17:00 +3°C° 0 mm 5 mps 743 mmHg 79%
    18:00 +3°C° 0.1 mm 5 mps 743 mmHg 80%
    19:00 +3°C° 0.1 mm 5 mps 743 mmHg 81%
    20:00 +3°C° 0.1 mm 6 mps 742 mmHg 82%
    21:00 +4°C° 0 mm 6 mps 742 mmHg 82%
    22:00 +5°C° 0 mm 5 mps 742 mmHg 82%
    23:00 +5°C° 0 mm 5 mps 742 mmHg 82%

    28 October, Sunday

    Time Temperature Precipitation Wind Pressure Humidity
    00:00 +3°C° 0 mm 5 mps 742 mmHg 85%
    01:00 +4°C° 0 mm 4 mps 742 mmHg 87%
    02:00 +4°C° 0 mm 4 mps 743 mmHg 90%
    03:00 +4°C° 0 mm 4 mps 743 mmHg 90%
    04:00 +4°C° 0 mm 3 mps 742 mmHg 91%
    05:00 +5°C° 0 mm 3 mps 742 mmHg 91%
    06:00 +5°C° 0 mm 3 mps 742 mmHg 92%
    07:00 +5°C° 0 mm 3 mps 743 mmHg 92%
    08:00 +7°C° 0 mm 3 mps 743 mmHg 93%
    09:00 +8°C° 0 mm 3 mps 743 mmHg 91%
    10:00 +9°C° 0 mm 3 mps 743 mmHg 88%
    11:00 +9°C° 0 mm 3 mps 743 mmHg 86%
    12:00 +10°C° 0.1 mm 4 mps 742 mmHg 86%
    13:00 +11°C° 0.1 mm 4 mps 742 mmHg 85%
    14:00 +11°C° 0.1 mm 4 mps 742 mmHg 84%
    15:00 +10°C° 0.3 mm 5 mps 742 mmHg 86%
    16:00 +10°C° 0.3 mm 5 mps 741 mmHg 87%
    17:00 +10°C° 0.3 mm 6 mps 741 mmHg 89%
    18:00 +10°C° 0.2 mm 6 mps 741 mmHg 88%
    19:00 +11°C° 0.2 mm 6 mps 741 mmHg 88%
    20:00 +11°C° 0.2 mm 6 mps 741 mmHg 88%
    21:00 +11°C° 0.2 mm 6 mps 741 mmHg 88%
    22:00 +11°C° 0.2 mm 6 mps 741 mmHg 88%
    23:00 +13°C° 0.2 mm 6 mps 741 mmHg 88%
    Show more